Location: Newark
(6.9000°N, 10.0000°E)
Time: 14:41:58
(UTC+00:00)

Envisat - Visible Passes

Search period start: 21 October 2019 00:00
Search period end: 31 October 2019 00:00
Orbit: 764 x 766 km, 98.1° (Epoch: 21 October)

Date Brightness Start Highest point End Pass type
(mag) Time Alt. Az. Time Alt. Az. Time Alt. Az.
21 Oct 4.7 18:23:28 10° SSW 18:28:00 33° W 18:32:31 10° NW visible
22 Oct 2.9 17:46:15 10° SSE 17:51:19 84° ENE 17:56:23 10° N visible
23 Oct 5.9 18:50:23 10° SW 18:53:27 16° W 18:56:32 10° WNW visible
24 Oct 4.1 18:11:55 10° S 18:16:45 46° WSW 18:21:35 10° NNW visible
25 Oct 3.0 17:35:05 10° SSE 17:40:04 62° ENE 17:45:04 10° N visible
26 Oct 5.4 18:38:21 10° SSW 18:42:12 22° W 18:46:04 10° NW visible
27 Oct 3.5 18:00:30 10° S 18:05:30 63° WSW 18:10:31 10° NNW visible
28 Oct 3.3 17:24:02 10° SSE 17:28:51 45° ENE 17:33:39 10° N visible
29 Oct 4.9 18:26:35 10° SSW 18:30:57 30° W 18:35:20 10° NW visible
30 Oct 3.0 17:49:12 10° S 17:54:16 86° W 17:59:20 10° NNW visible
